Regional Weather Roundup
Issued by NWS Raleigh/Durham, NC

Home | Current Version | Previous Version | Text Only | Print | Product List | Glossary On
Versions: 1 2 3 4 5 6 7 8 9 10 11 12 13 14 15 16 17 18 19 20 21 22 23 24 25 26 27 28 29 30 31 32 33 34 35 36 37 38 39 40 41 42 43 44 45 46 47 48 49 50
000
ASUS42 KRAH 220210
RWRRAH
NORTH CAROLINA WEATHER ROUNDUP
NATIONAL WEATHER SERVICE RALEIGH NC
900 PM EST SUN DEC 21 2014

NOTE: "FAIR" INDICATES FEW OR NO CLOUDS BELOW 12,000 FEET WITH NO
SIGNIFICANT WEATHER AND/OR OBSTRUCTIONS TO VISIBILITY.

NCZ001-053-055-056-065-067-220300-
WESTERN NORTH CAROLINA

CITY           SKY/WX    TMP DP  RH WIND       PRES   REMARKS
ASHEVILLE      CLOUDY    41  37  86 S9        30.16R
JEFFERSON      CLOUDY    35  34  96 SE3       30.15R FOG
MORGANTON      CLOUDY    43  39  85 CALM      30.23F
HICKORY        CLOUDY    43  37  79 NE5       30.20R
RUTHERFORDTON  CLOUDY    44  38  79 NE5       30.19F
MOUNT AIRY     CLOUDY    43  36  74 E5        30.23S
BOONE          CLOUDY    35  35 100 SE5       30.15S FOG     WCI  31
$$

NCZ021-022-025-041-071-084-088-220300-
CENTRAL NORTH CAROLINA

CITY           SKY/WX    TMP DP  RH WIND       PRES   REMARKS
CHARLOTTE      CLOUDY    47  35  63 E8        30.20S
GREENSBORO     CLOUDY    40  34  79 E8        30.21F WCI  34
WINSTON-SALEM  CLOUDY    41  34  76 NE6       30.22F
RALEIGH-DURHAM CLOUDY    44  32  62 E7        30.25S
FORT BRAGG     CLOUDY    46  35  67 NE6       30.22R
FAYETTEVILLE   CLOUDY    46  37  71 NE7       30.21F
BURLINGTON     CLOUDY    42  32  67 E7        30.22F
LAURINBURG     CLOUDY    46  36  68 E12       30.22R
$$

NCZ011-015-027-028-043-044-047-080-103-220300-
NORTHEASTERN NORTH CAROLINA

CITY           SKY/WX    TMP DP  RH WIND       PRES   REMARKS
ROCKY MT-WILSO CLOUDY    42  33  70 NE6       30.26S
GREENVILLE     CLOUDY    43  36  75 E6        30.26F
WASHINGTON     CLOUDY    41  34  77 NE7       30.26S
ELIZABETH CITY CLEAR     41  33  73 N7        30.29S
MANTEO         MOCLDY    45  40  83 NE12      30.26S
CAPE HATTERAS  CLOUDY    47  45  93 NE10      30.22F
$$

NCZ078-087-090-091-093-098-101-220300-
SOUTHEASTERN NORTH CAROLINA

CITY           SKY/WX    TMP DP  RH WIND       PRES   REMARKS
LUMBERTON      CLOUDY    47  36  65 E7        30.21F
GOLDSBORO      CLOUDY    45  40  82 NE10      30.22F
KINSTON        CLOUDY    45  36  70 NE9       30.25S
KENANSVILLE    CLOUDY    45  35  69 CALM      30.24F
NEW BERN       CLOUDY    46  37  71 NE9       30.25S
CHERRY POINT   LGT RAIN  45  39  79 NE10      30.24R
BEAUFORT       CLOUDY    45  41  86 NE13      30.21S
JACKSONVILLE   LGT RAIN  44  40  85 NE10      30.21F FOG
WILMINGTON     LGT RAIN  44  40  85 N8        30.20S
$$



USA.gov is the U.S. government's official web portal to all federal, state and local government web resources and services.